WE1C Weather Reports


time (UTC)temp
C
wind
direction
speed
KPH
gust
KPH
rain 1hr
cm
rain 24hr
cm
rain mn
cm
humidity
%
barometer
mb
20260507000502 13 181 4.8 6.4 0.00 0.00 0.61 99 1006.3
20260507000457 13 181 4.8 4.8 0.00 0.61 0.61 99 1035.0
20260507000003 13 331 0.0 0.0 0.00 0.00 0.61 99 1006.4
20260506235952 13 331 0.0 0.0 0.00 0.61 0.61 99 1035.1
20260506235503 13 209 3.2 4.8 0.00 0.00 0.61 99 1006.4
20260506235450 13 209 1.6 3.2 0.00 0.61 0.61 99 1035.1
20260506235002 13 134 1.6 3.2 0.00 0.00 0.61 99 1006.3
20260506234946 13 134 1.6 1.6 0.00 0.61 0.61 99 1035.0
20260506234502 13 158 3.2 4.8 0.00 0.00 0.61 99 1006.2
20260506234443 13 352 0.0 0.0 0.00 0.61 0.61 99 1034.7
20260506234003 13 183 1.6 3.2 0.00 0.00 0.61 99 1006.0
20260506233941 13 191 1.6 1.6 0.00 0.61 0.61 99 1034.9
20260506233503 13 205 3.2 4.8 0.00 0.00 0.61 99 1006.1
20260506233437 13 134 1.6 1.6 0.00 0.61 0.61 99 1034.9
20260506232934 13 176 0.0 1.6 0.00 0.61 0.61 99 1034.7
20260506232503 13 33 1.6 4.8 0.00 0.00 0.61 99 1006.0
20260506232430 13 176 0.0 1.6 0.00 0.61 0.61 99 1034.6
20260506231926 13 92 0.0 1.6 0.00 0.61 0.61 99 1034.8
20260506231502 13 174 0.0 0.0 0.00 0.00 0.61 99 1006.0
20260506231423 13 101 3.2 3.2 0.00 0.61 0.61 99 1034.8
20260506231003 13 169 1.6 3.2 0.00 0.00 0.61 99 1006.0
20260506230920 14 189 1.6 1.6 0.00 0.61 0.61 99 1034.8
20260506230502 13 172 1.6 3.2 0.00 0.00 0.61 99 1006.0
20260506230417 13 49 0.0 1.6 0.00 0.61 0.61 99 1034.5
20260506230002 13 172 3.2 4.8 0.00 0.00 0.61 99 1006.1
20260506225914 13 66 0.0 1.6 0.13 0.61 0.61 99 1034.7
20260506225503 13 135 1.6 4.8 0.10 0.00 0.61 99 1006.0
20260506225411 13 187 4.8 8.0 0.13 0.61 0.61 99 1034.8
20260506224908 13 170 0.0 1.6 0.00 0.61 0.61 99 1034.7
20260506224503 13 190 4.8 6.4 0.18 0.00 0.58 99 1005.9
20260506224405 13 182 1.6 3.2 0.18 0.61 0.61 99 1034.9
20260506224003 13 201 1.6 3.2 0.28 0.00 0.58 99 1006.2
20260506223901 13 182 1.6 1.6 0.30 0.61 0.61 99 1034.7
20260506223356 13 168 3.2 4.8 0.23 0.56 0.56 99 1034.7
20260506222854 13 191 1.6 1.6 0.13 0.53 0.53 99 1034.7
20260506222350 13 184 1.6 1.6 0.23 0.53 0.53 99 1034.9
20260506222002 13 212 1.6 3.2 0.10 0.00 0.51 99 1006.4
20260506221848 13 171 3.2 3.2 0.13 0.51 0.51 99 1034.9
20260506221345 13 189 1.6 1.6 0.00 0.48 0.48 99 1035.1
20260506220842 13 60 1.6 1.6 0.00 0.48 0.48 99 1035.0
20260506220338 13 190 0.0 0.0 0.00 0.48 0.48 99 1035.0
20260506220002 13 157 3.2 4.8 0.00 0.00 0.48 99 1006.4
20260506215835 13 195 1.6 3.2 0.00 0.48 0.48 99 1035.0
20260506215503 13 187 4.8 6.4 0.00 0.00 0.48 99 1006.5
20260506215330 13 200 4.8 4.8 0.00 0.48 0.48 99 1035.3
20260506215002 13 200 3.2 6.4 0.00 0.00 0.48 99 1006.5
20260506214826 14 159 1.6 1.6 0.00 0.48 0.48 99 1035.1
20260506214323 14 168 0.0 0.0 0.18 0.48 0.48 99 1035.1
20260506213822 14 196 1.6 1.6 0.30 0.48 0.48 99 1035.2
20260506213502 14 177 0.0 0.0 0.23 0.00 0.46 99 1006.3
20260506213319 14 183 0.0 0.0 0.23 0.46 0.46 99 1035.0
20260506212816 14 192 0.0 1.6 0.13 0.43 0.43 98 1035.4
20260506212502 14 195 4.8 6.4 0.00 0.00 0.41 98 1006.6
20260506212312 14 187 1.6 1.6 0.00 0.43 0.43 98 1035.7
20260506211807 14 178 1.6 1.6 0.00 0.43 0.43 98 1035.3
20260506211502 14 161 1.6 3.2 0.00 0.00 0.41 98 1006.8
20260506211303 14 188 4.8 4.8 0.00 0.43 0.43 98 1035.3
20260506211003 14 134 4.8 6.4 0.00 0.00 0.41 98 1006.7
20260506210801 14 182 0.0 1.6 0.00 0.43 0.43 98 1035.5
20260506210257 14 193 4.8 4.8 0.00 0.43 0.43 98 1035.3
20260506210002 14 12 1.6 4.8 0.00 0.00 0.41 98 1006.6
20260506205754 14 181 3.2 3.2 0.00 0.43 0.43 98 1035.7
20260506205503 14 165 1.6 3.2 0.00 0.00 0.41 98 1006.7
20260506205250 14 88 1.6 3.2 0.13 0.43 0.43 98 1035.5
20260506205002 14 209 3.2 4.8 0.10 0.00 0.41 98 1006.9
20260506204747 14 203 3.2 3.2 0.13 0.43 0.43 98 1035.6
20260506204503 14 85 1.6 3.2 0.10 0.00 0.41 98 1006.8
20260506204245 14 201 1.6 1.6 0.00 0.41 0.41 98 1035.5
20260506203742 14 95 1.6 1.6 0.00 0.41 0.41 97 1035.7
20260506203239 14 211 1.6 3.2 0.00 0.41 0.41 97 1035.9
20260506203002 14 132 1.6 3.2 0.00 0.00 0.38 97 1007.2
20260506202736 14 84 1.6 3.2 0.00 0.41 0.41 97 1035.7
20260506202503 14 174 6.4 8.0 0.00 0.00 0.38 97 1007.0
20260506202233 14 201 0.0 1.6 0.00 0.41 0.41 97 1035.5
20260506202002 14 183 3.2 4.8 0.00 0.00 0.38 97 1007.2
20260506201730 14 234 3.2 3.2 0.00 0.41 0.41 97 1035.8
20260506201503 14 188 1.6 3.2 0.10 0.00 0.38 97 1007.0
20260506201226 14 191 6.4 8.0 0.13 0.41 0.41 97 1036.0
20260506201002 14 162 1.6 3.2 0.10 0.00 0.38 97 1007.1
20260506200723 14 224 4.8 4.8 0.13 0.41 0.41 97 1035.9
20260506200502 14 212 6.4 8.0 0.18 0.00 0.38 97 1007.1
20260506200220 14 192 1.6 1.6 0.18 0.38 0.38 97 1035.8
20260506200003 14 191 4.8 6.4 0.18 0.00 0.38 97 1007.2
20260506195717 14 211 1.6 1.6 0.18 0.38 0.38 97 1035.9
20260506195502 14 6 3.2 4.8 0.00 0.00 0.33 97 1007.3
20260506195213 14 196 3.2 3.2 0.13 0.36 0.36 97 1035.9
20260506194711 14 201 1.6 3.2 0.13 0.36 0.36 96 1035.7
20260506194502 14 178 1.6 3.2 0.10 0.00 0.33 96 1007.2
20260506194207 14 191 3.2 4.8 0.13 0.33 0.33 96 1036.1
20260506194002 14 176 1.6 3.2 0.10 0.00 0.33 96 1007.2
20260506193705 14 182 4.8 4.8 0.23 0.33 0.33 95 1036.0
20260506193503 14 156 4.8 6.4 0.23 0.00 0.33 95 1007.2
20260506193201 15 191 4.8 4.8 0.13 0.30 0.30 95 1036.0
20260506193002 15 115 3.2 4.8 0.10 0.00 0.30 95 1007.4
20260506192658 15 176 1.6 3.2 0.13 0.28 0.28 95 1035.9
20260506192503 15 146 1.6 3.2 0.10 0.00 0.28 95 1007.3
20260506192154 15 145 1.6 1.6 0.13 0.28 0.28 94 1036.1
20260506192002 15 146 4.8 6.4 0.28 0.00 0.28 94 1007.4
20260506191651 15 183 3.2 3.2 0.18 0.28 0.28 94 1036.1
20260506191502 15 200 3.2 4.8 0.18 0.00 0.25 94 1007.1
20260506191147 15 196 3.2 3.2 0.13 0.23 0.23 94 1036.4
20260506190645 15 155 3.2 8.0 0.23 0.23 0.23 93 1036.2
20260506190141 15 187 0.0 0.0 0.13 0.23 0.23 93 1036.2
20260506190002 15 209 3.2 4.8 0.10 0.00 0.20 93 1007.6
20260506185638 15 178 1.6 1.6 0.13 0.20 0.20 92 1036.1
20260506185134 15 196 3.2 4.8 0.13 0.20 0.20 92 1035.9
20260506185003 15 197 3.2 4.8 0.10 0.00 0.18 92 1007.6
20260506184632 15 179 1.6 1.6 0.18 0.18 0.18 91 1036.0
20260506184503 15 159 1.6 3.2 0.18 0.00 0.18 91 1007.3
20260506184129 15 177 1.6 1.6 0.18 0.18 0.18 91 1036.1
20260506184002 15 179 3.2 3.2 0.28 0.00 0.18 91 1007.6
20260506183626 15 176 0.0 1.6 0.23 0.15 0.15 90 1036.4
20260506183503 15 180 1.6 3.2 0.36 0.00 0.13 90 1007.7
20260506183122 15 227 4.8 4.8 0.23 0.13 0.13 89 1036.5
20260506183004 15 181 1.6 3.2 0.23 0.00 0.13 89 1007.8
20260506182620 16 194 1.6 3.2 0.13 0.10 0.10 88 1036.6
20260506182502 16 197 3.2 4.8 0.10 0.00 0.08 88 1007.9
20260506182116 16 129 0.0 1.6 0.30 0.10 0.10 88 1036.6
20260506182003 16 203 0.0 0.0 0.28 0.00 0.08 87 1007.9
20260506181614 16 162 0.0 1.6 0.18 0.08 0.08 87 1036.8
20260506181502 16 174 1.6 3.2 0.18 0.00 0.05 86 1008.0
20260506181111 16 194 0.0 0.0 0.13 0.05 0.05 85 1036.8
20260506181002 16 293 6.4 8.0 0.10 0.00 0.03 85 1008.1
20260506180608 16 143 0.0 1.6 0.13 0.05 0.05 85 1036.8
20260506180503 16 184 0.0 0.0 0.23 0.00 0.03 84 1008.3
20260506180104 16 95 1.6 1.6 0.13 0.03 0.03 83 1036.9
20260506175601 17 117 1.6 1.6 0.13 0.03 0.03 80 1036.8
20260506175502 17 222 4.8 6.4 0.00 0.00 0.00 79 1008.4
20260506175057 17 215 3.2 3.2 0.00 0.00 0.00 78 1037.0
20260506175003 17 3 4.8 6.4 0.00 0.00 0.00 76 1008.3
20260506174556 18 197 1.6 3.2 0.00 0.00 0.00 74 1037.1
20260506174502 18 192 6.4 6.4 0.00 0.00 0.00 74 1008.3
20260506174051 18 183 8.0 11.3 0.00 0.00 0.00 71 1037.0
20260506173550 19 176 6.4 11.3 0.00 0.00 0.00 69 1037.0
20260506173504 20 249 6.4 8.0 0.00 0.00 0.00 68 1008.4
20260506173046 20 209 3.2 4.8 0.00 0.00 0.00 66 1037.1
20260506173002 20 53 4.8 8.0 0.00 0.00 0.00 65 1008.4
20260506172544 20 245 1.6 1.6 0.00 0.00 0.00 64 1036.9
20260506172502 20 245 3.2 3.2 0.00 0.00 0.00 64 1008.2
20260506172040 20 209 3.2 4.8 0.00 0.00 0.00 63 1036.7
20260506172003 20 209 4.8 6.4 0.00 0.00 0.00 63 1008.0
20260506171537 20 202 4.8 9.7 0.00 0.00 0.00 62 1037.0
20260506171503 20 202 4.8 9.7 0.00 0.00 0.00 62 1008.3
20260506171035 20 208 4.8 4.8 0.00 0.00 0.00 62 1036.5
20260506171002 20 208 4.8 6.4 0.00 0.00 0.00 62 1007.8
20260506170532 20 222 4.8 8.0 0.00 0.00 0.00 62 1036.8
20260506170502 20 222 4.8 8.0 0.00 0.00 0.00 62 1008.1
20260506170030 21 196 6.4 11.3 0.00 0.00 0.00 60 1036.6
20260506170003 21 196 6.4 11.3 0.00 0.00 0.00 60 1007.9
20260506165528 21 114 6.4 9.7 0.00 0.00 0.00 61 1036.7
20260506165502 21 114 6.4 9.7 0.00 0.00 0.00 61 1008.0
20260506165024 21 198 6.4 9.7 0.00 0.00 0.00 60 1036.9
20260506165002 21 198 6.4 9.7 0.00 0.00 0.00 60 1008.2
20260506164521 21 38 4.8 4.8 0.00 0.00 0.00 59 1036.8
20260506164503 21 38 4.8 6.4 0.00 0.00 0.00 59 1008.1
20260506164018 21 239 6.4 8.0 0.00 0.00 0.00 59 1036.6
20260506164002 21 239 6.4 8.0 0.00 0.00 0.00 59 1007.9
20260506163514 21 206 8.0 9.7 0.00 0.00 0.00 59 1036.6
20260506163010 21 193 3.2 8.0 0.00 0.00 0.00 60 1036.9
20260506163002 21 193 4.8 8.0 0.00 0.00 0.00 60 1008.2
20260506162506 21 193 1.6 1.6 0.00 0.00 0.00 60 1037.0
20260506162004 21 171 4.8 8.0 0.00 0.00 0.00 61 1037.2
20260506162002 21 171 4.8 8.0 0.00 0.00 0.00 61 1008.5
20260506161502 21 82 4.8 8.0 0.00 0.00 0.00 61 1008.5
20260506161003 21 188 6.4 8.0 0.00 0.00 0.00 61 1008.5
20260506160958 21 188 6.4 8.0 0.00 0.00 0.00 61 1037.2
20260506160502 20 180 3.2 3.2 0.00 0.00 0.00 61 1008.5
20260506160455 20 180 1.6 1.6 0.00 0.00 0.00 61 1037.2
20260506160003 20 151 1.6 3.2 0.00 0.00 0.00 62 1008.4
20260506155952 20 151 1.6 1.6 0.00 0.00 0.00 62 1037.1
20260506155502 20 194 4.8 6.4 0.00 0.00 0.00 63 1008.8
20260506155450 20 194 3.2 4.8 0.00 0.00 0.00 63 1037.5
20260506155002 20 218 9.7 11.3 0.00 0.00 0.00 62 1008.9
20260506154503 20 205 3.2 4.8 0.00 0.00 0.00 63 1008.9
20260506154002 20 92 3.2 3.2 0.00 0.00 0.00 62 1008.9
20260506153622 20 178 1.6 1.6 0.00 0.00 0.00 63 1037.7
20260506153503 20 160 3.2 4.8 0.00 0.00 0.00 63 1009.1
20260506153120 20 162 3.2 4.8 0.00 0.00 0.00 63 1037.7
20260506153002 20 184 4.8 6.4 0.00 0.00 0.00 64 1009.2
20260506152617 20 93 1.6 3.2 0.00 0.00 0.00 64 1037.6
20260506152503 20 196 3.2 4.8 0.00 0.00 0.00 64 1008.9
20260506152115 20 162 0.0 1.6 0.00 0.00 0.00 64 1037.9
20260506152002 20 112 4.8 6.4 0.00 0.00 0.00 63 1009.1
20260506151613 20 168 4.8 8.0 0.00 0.00 0.00 64 1038.1
20260506151503 20 207 4.8 8.0 0.00 0.00 0.00 64 1009.2
20260506151109 20 178 4.8 8.0 0.00 0.00 0.00 63 1037.8
20260506150606 20 193 1.6 3.2 0.00 0.00 0.00 64 1037.9
20260506150503 20 203 6.4 8.0 0.00 0.00 0.00 63 1009.5
20260506150003 20 212 4.8 6.4 0.00 0.00 0.00 64 1009.5
20260506145600 20 258 8.0 11.3 0.00 0.00 0.00 63 1038.3
20260506145057 20 210 4.8 4.8 0.00 0.00 0.00 64 1038.2
20260506145002 20 350 4.8 6.4 0.00 0.00 0.00 64 1009.3
20260506144554 20 150 1.6 3.2 0.00 0.00 0.00 63 1038.3
20260506144503 20 191 3.2 6.4 0.00 0.00 0.00 63 1009.4
20260506144051 20 177 1.6 3.2 0.00 0.00 0.00 64 1038.1
20260506144003 20 158 3.2 4.8 0.00 0.00 0.00 64 1009.6
20260506143549 20 204 9.7 16.1 0.00 0.00 0.00 65 1038.3
20260506143503 20 187 1.6 3.2 0.00 0.00 0.00 66 1009.6
20260506143047 20 187 4.8 8.0 0.00 0.00 0.00 67 1038.7
20260506143002 20 216 4.8 6.4 0.00 0.00 0.00 67 1009.6
20260506142544 19 207 1.6 1.6 0.00 0.00 0.00 68 1038.7
20260506142503 19 207 3.2 3.2 0.00 0.00 0.00 68 1009.9
20260506142042 19 156 4.8 4.8 0.00 0.00 0.00 67 1038.2
20260506142003 19 156 4.8 6.4 0.00 0.00 0.00 67 1009.5
20260506141540 19 105 4.8 8.0 0.00 0.00 0.00 67 1038.3
20260506141038 19 242 3.2 3.2 0.00 0.00 0.00 68 1038.4
20260506141002 19 242 3.2 4.8 0.00 0.00 0.00 68 1009.7
20260506140535 18 179 4.8 8.0 0.00 0.00 0.00 68 1038.1
20260506140032 18 210 3.2 3.2 0.00 0.00 0.00 69 1038.3
20260506140003 18 210 3.2 4.8 0.00 0.00 0.00 69 1009.6
20260506135529 18 158 1.6 1.6 0.00 0.00 0.00 69 1038.1
20260506135503 18 158 1.6 3.2 0.00 0.00 0.00 69 1009.4
20260506135025 19 12 1.6 3.2 0.00 0.00 0.00 69 1038.1
20260506135002 19 12 3.2 4.8 0.00 0.00 0.00 69 1009.4
20260506134521 19 203 4.8 9.7 0.00 0.00 0.00 69 1038.2
20260506134018 18 99 3.2 4.8 0.00 0.00 0.00 71 1038.4
20260506134002 18 99 3.2 6.4 0.00 0.00 0.00 71 1009.7
20260506133515 18 253 8.0 9.7 0.00 0.00 0.00 71 1038.3
20260506133503 18 253 8.0 9.7 0.00 0.00 0.00 71 1009.6
20260506133012 18 188 3.2 3.2 0.00 0.00 0.00 71 1038.2
20260506133002 18 188 4.8 4.8 0.00 0.00 0.00 71 1009.5
20260506132509 18 175 6.4 8.0 0.00 0.00 0.00 72 1038.3
20260506132503 18 175 6.4 8.0 0.00 0.00 0.00 72 1009.6
20260506132006 18 199 3.2 4.8 0.00 0.00 0.00 72 1038.4
20260506132002 18 199 3.2 6.4 0.00 0.00 0.00 72 1009.7
20260506131503 18 95 4.8 6.4 0.00 0.00 0.00 73 1009.9
20260506131002 17 211 4.8 8.0 0.00 0.00 0.00 73 1010.2
20260506131000 17 211 4.8 8.0 0.00 0.00 0.00 73 1039.0
20260506130503 17 200 4.8 6.4 0.00 0.00 0.00 74 1010.2
20260506130456 17 200 4.8 4.8 0.00 0.00 0.00 74 1039.0
20260506130004 17 108 3.2 4.8 0.00 0.00 0.00 75 1010.3
20260506125954 17 108 1.6 3.2 0.00 0.00 0.00 75 1039.1
20260506125502 17 218 1.6 3.2 0.00 0.00 0.00 76 1010.2
20260506125452 17 218 1.6 1.6 0.00 0.00 0.00 76 1039.0
20260506125002 17 82 3.2 6.4 0.00 0.00 0.00 76 1010.1
20260506124950 17 82 3.2 4.8 0.00 0.00 0.00 76 1038.9
20260506124503 17 226 3.2 4.8 0.00 0.00 0.00 76 1010.0
20260506124447 17 226 1.6 3.2 0.00 0.00 0.00 76 1038.8
20260506123945 16 207 1.6 3.2 0.00 0.00 0.00 77 1039.1
20260506123443 16 202 3.2 4.8 0.00 0.00 0.00 77 1038.7
20260506123003 16 170 3.2 4.8 0.00 0.00 0.00 77 1010.2
20260506122940 16 209 3.2 3.2 0.00 0.00 0.00 76 1039.1
20260506122502 17 186 3.2 4.8 0.00 0.00 0.00 76 1009.9
20260506122437 16 188 1.6 3.2 0.00 0.00 0.00 76 1038.8
20260506122003 16 166 1.6 3.2 0.00 0.00 0.00 77 1009.9
20260506121935 16 193 4.8 4.8 0.00 0.00 0.00 77 1038.7
20260506121503 16 206 6.4 8.0 0.00 0.00 0.00 78 1009.8
20260506121432 16 183 4.8 8.0 0.00 0.00 0.00 78 1038.8
20260506121002 16 186 3.2 4.8 0.00 0.00 0.00 78 1010.2
20260506120929 16 191 1.6 3.2 0.00 0.00 0.00 78 1039.0
20260506120502 16 182 6.4 6.4 0.00 0.00 0.00 78 1010.1
20260506120426 16 119 1.6 3.2 0.00 0.00 0.00 78 1038.9
20260506120003 16 185 3.2 4.8 0.00 0.00 0.00 78 1010.0
20260506115924 16 173 1.6 3.2 0.00 0.00 0.00 78 1038.8
20260506115503 16 158 3.2 4.8 0.00 0.00 0.00 79 1010.2
20260506115421 16 149 1.6 1.6 0.00 0.00 0.00 79 1039.0
20260506114920 16 98 3.2 4.8 0.00 0.00 0.00 79 1038.8
20260506114502 16 187 3.2 3.2 0.00 0.00 0.00 78 1010.0
20260506114417 16 175 1.6 3.2 0.00 0.00 0.00 79 1038.8
20260506114003 16 191 4.8 6.4 0.00 0.00 0.00 78 1009.9
20260506113916 16 191 3.2 3.2 0.00 0.00 0.00 79 1038.9
20260506113502 15 14 4.8 6.4 0.00 0.00 0.00 80 1010.3
20260506113413 15 41 3.2 4.8 0.00 0.00 0.00 80 1038.8
20260506113003 15 189 1.6 3.2 0.00 0.00 0.00 80 1010.4
20260506112909 15 191 1.6 1.6 0.00 0.00 0.00 80 1039.0
20260506112502 15 185 1.6 3.2 0.00 0.00 0.00 81 1010.3
20260506112407 15 197 3.2 3.2 0.00 0.00 0.00 81 1039.1
20260506112002 15 186 3.2 3.2 0.00 0.00 0.00 82 1010.3
20260506111904 15 173 1.6 3.2 0.00 0.00 0.00 82 1039.1
20260506111402 15 166 1.6 1.6 0.00 0.00 0.00 82 1039.1
20260506111003 15 137 1.6 3.2 0.00 0.00 0.00 81 1010.4
20260506110859 15 172 3.2 3.2 0.00 0.00 0.00 81 1039.3
20260506110503 15 242 1.6 3.2 0.00 0.00 0.00 81 1010.6
20260506110356 15 190 1.6 1.6 0.00 0.00 0.00 81 1039.4
20260506110002 15 191 4.8 4.8 0.00 0.00 0.00 81 1010.4
20260506105853 15 200 3.2 4.8 0.00 0.00 0.00 81 1039.2
20260506105503 15 116 3.2 4.8 0.00 0.00 0.00 82 1010.1
20260506105349 15 162 1.6 1.6 0.00 0.00 0.00 82 1039.2
20260506105003 15 172 3.2 4.8 0.00 0.00 0.00 82 1010.2
20260506104847 15 175 3.2 3.2 0.00 0.00 0.00 82 1039.2
20260506104502 15 201 3.2 4.8 0.00 0.00 0.00 82 1010.5
20260506104344 14 149 1.6 3.2 0.00 0.00 0.00 82 1038.9
20260506104003 14 190 3.2 4.8 0.00 0.00 0.00 82 1010.3
20260506103842 14 174 1.6 3.2 0.00 0.00 0.00 82 1039.0
20260506103503 14 194 3.2 4.8 0.00 0.00 0.00 83 1010.4
20260506103339 14 184 1.6 1.6 0.00 0.00 0.00 83 1039.2
20260506103002 14 197 4.8 6.4 0.00 0.00 0.00 83 1010.3
20260506102836 14 84 1.6 1.6 0.00 0.00 0.00 83 1039.1
20260506102503 14 182 3.2 4.8 0.00 0.00 0.00 83 1010.1
20260506102334 14 195 1.6 1.6 0.00 0.00 0.00 83 1039.0
20260506102003 14 198 4.8 6.4 0.00 0.00 0.00 83 1010.0
20260506101831 13 199 1.6 3.2 0.00 0.00 0.00 83 1038.8
20260506101504 13 203 1.6 3.2 0.00 0.00 0.00 83 1010.1
20260506101327 13 184 3.2 3.2 0.00 0.00 0.00 83 1038.9
20260506100825 13 155 0.0 1.6 0.00 0.00 0.00 83 1039.2
20260506100502 13 207 1.6 3.2 0.00 0.00 0.00 83 1010.2
20260506100323 13 188 3.2 3.2 0.00 0.00 0.00 83 1039.0
20260506100003 13 194 1.6 3.2 0.00 0.00 0.00 83 1010.2
20260506095822 13 194 1.6 3.2 0.00 0.00 0.00 83 1039.1
20260506095502 13 187 1.6 3.2 0.00 0.00 0.00 83 1010.2
20260506095318 13 134 1.6 3.2 0.00 0.00 0.00 83 1039.1
20260506095003 13 189 3.2 4.8 0.00 0.00 0.00 83 1010.2
20260506094815 13 225 4.8 8.0 0.00 0.00 0.00 83 1038.8
20260506094502 13 84 1.6 4.8 0.00 0.00 0.00 82 1010.2
20260506094314 14 156 1.6 1.6 0.00 0.00 0.00 82 1038.5
20260506094002 14 89 8.0 14.5 0.00 0.00 0.00 82 1010.2
20260506093812 14 201 3.2 3.2 0.00 0.00 0.00 82 1038.8
20260506093503 14 65 3.2 6.4 0.00 0.00 0.00 82 1010.3
20260506093308 14 203 3.2 3.2 0.00 0.00 0.00 82 1039.2
20260506093002 13 180 3.2 4.8 0.00 0.00 0.00 82 1010.1
20260506092807 13 201 4.8 4.8 0.00 0.00 0.00 82 1038.7
20260506092502 13 161 1.6 3.2 0.00 0.00 0.00 82 1010.2
20260506092306 13 201 3.2 8.0 0.00 0.00 0.00 82 1038.9
20260506092003 13 186 1.6 3.2 0.00 0.00 0.00 82 1010.2
20260506091801 14 164 3.2 3.2 0.00 0.00 0.00 82 1038.5
20260506091502 14 195 3.2 4.8 0.00 0.00 0.00 81 1010.0
20260506091258 14 150 3.2 3.2 0.00 0.00 0.00 81 1038.7
20260506091002 14 145 6.4 8.0 0.00 0.00 0.00 81 1010.0
20260506090756 14 186 1.6 3.2 0.00 0.00 0.00 81 1038.9
20260506090503 14 199 4.8 8.0 0.00 0.00 0.00 81 1010.1
20260506090253 14 200 0.0 1.6 0.00 0.00 0.00 81 1038.9
20260506090002 14 101 3.2 4.8 0.00 0.00 0.00 81 1009.9
20260506085750 14 168 0.0 1.6 0.00 0.00 0.00 81 1039.0
20260506085502 14 141 1.6 3.2 0.00 0.00 0.00 81 1010.1
20260506085246 14 188 1.6 1.6 0.00 0.00 0.00 81 1039.0
20260506085003 14 184 3.2 3.2 0.00 0.00 0.00 80 1010.1
20260506084743 14 187 1.6 3.2 0.00 0.00 0.00 80 1039.0
20260506084504 14 191 4.8 6.4 0.00 0.00 0.00 80 1010.1
20260506084239 14 180 0.0 1.6 0.00 0.00 0.00 80 1038.9
20260506084003 14 184 1.6 3.2 0.00 0.00 0.00 80 1010.2
20260506083736 14 188 1.6 1.6 0.00 0.00 0.00 80 1039.1
20260506083502 14 149 3.2 4.8 0.00 0.00 0.00 80 1010.2
20260506083234 14 178 1.6 1.6 0.00 0.00 0.00 80 1039.1
20260506083003 14 179 4.8 8.0 0.00 0.00 0.00 80 1010.1
20260506082731 14 184 1.6 1.6 0.00 0.00 0.00 80 1039.0
20260506082502 14 227 3.2 4.8 0.00 0.00 0.00 80 1010.0
20260506082226 14 173 1.6 1.6 0.00 0.00 0.00 80 1039.1
20260506082002 14 138 1.6 3.2 0.00 0.00 0.00 80 1010.3
20260506081724 14 136 4.8 4.8 0.00 0.00 0.00 80 1038.9
20260506081503 14 151 1.6 3.2 0.00 0.00 0.00 79 1010.1
20260506081221 15 82 1.6 1.6 0.00 0.00 0.00 79 1039.0
20260506081003 15 148 1.6 4.8 0.00 0.00 0.00 79 1010.1
20260506080719 15 58 1.6 1.6 0.00 0.00 0.00 79 1039.1
20260506080502 15 60 4.8 6.4 0.00 0.00 0.00 79 1010.5
20260506080215 15 194 4.8 4.8 0.00 0.00 0.00 79 1039.1
20260506073200 15 199 4.8 4.8 0.00 0.00 0.00 78 1038.9
20260506073002 15 178 1.6 3.2 0.00 0.00 0.00 77 1010.1
20260506072656 15 153 3.2 3.2 0.00 0.00 0.00 77 1039.0
20260506072503 15 217 4.8 6.4 0.00 0.00 0.00 77 1010.4
20260506072154 15 210 3.2 4.8 0.00 0.00 0.00 77 1038.9
20260506072003 15 188 3.2 4.8 0.00 0.00 0.00 78 1010.1
20260506071652 15 212 0.0 3.2 0.00 0.00 0.00 77 1038.8
20260506071502 15 202 4.8 6.4 0.00 0.00 0.00 78 1010.0
20260506071149 15 224 1.6 3.2 0.00 0.00 0.00 77 1038.8
20260506071003 15 190 3.2 4.8 0.00 0.00 0.00 77 1010.0
20260506070646 15 190 4.8 4.8 0.00 0.00 0.00 77 1038.8
20260506070143 15 199 3.2 3.2 0.00 0.00 0.00 76 1038.8
20260506062503 15 208 6.4 6.4 0.00 0.00 0.00 74 1009.9
20260506062120 15 190 0.0 1.6 0.00 0.00 0.00 74 1038.8
20260506062002 15 240 1.6 3.2 0.00 0.00 0.00 74 1010.1
20260506061616 15 190 1.6 1.6 0.00 0.00 0.00 74 1038.9
20260506061503 15 157 3.2 6.4 0.00 0.00 0.00 74 1009.9
20260506061114 15 207 3.2 3.2 0.00 0.00 0.00 74 1038.9
20260506061002 15 198 4.8 6.4 0.00 0.00 0.00 74 1009.8
20260506060612 15 209 3.2 4.8 0.00 0.00 0.00 73 1038.7
20260506060109 16 208 3.2 3.2 0.00 0.00 0.00 73 1038.9
20260506051041 16 156 3.2 3.2 0.00 0.00 0.00 69 1039.1
20260506051002 16 156 3.2 4.8 0.00 0.00 0.00 69 1010.3
20260506050538 16 193 3.2 3.2 0.00 0.00 0.00 69 1039.0
20260506050503 16 193 3.2 4.8 0.00 0.00 0.00 69 1010.2
20260506045029 16 60 4.8 8.0 0.00 0.00 0.00 67 1038.9
20260506045002 16 60 4.8 8.0 0.00 0.00 0.00 67 1010.1
20260506044527 16 191 4.8 4.8 0.00 0.00 0.00 67 1039.2
20260506044502 16 191 4.8 6.4 0.00 0.00 0.00 67 1010.4
20260506044024 16 180 6.4 9.7 0.00 0.00 0.00 67 1039.0
20260506044003 16 180 6.4 9.7 0.00 0.00 0.00 67 1010.2
20260506043521 16 187 3.2 3.2 0.00 0.00 0.00 67 1039.1
20260506043019 16 194 4.8 8.0 0.00 0.00 0.00 66 1039.2
20260506043003 16 194 4.8 8.0 0.00 0.00 0.00 66 1010.4
20260506042518 16 197 3.2 3.2 0.00 0.00 0.00 66 1039.3
20260506042502 16 197 3.2 4.8 0.00 0.00 0.00 66 1010.5
20260506042015 16 171 3.2 4.8 0.00 0.00 0.00 67 1039.1
20260506042003 16 171 4.8 6.4 0.00 0.00 0.00 67 1010.3
20260506041514 16 186 3.2 4.8 0.00 0.00 0.00 66 1039.0
20260506041503 16 186 4.8 6.4 0.00 0.00 0.00 66 1010.2
20260506041010 16 174 4.8 4.8 0.00 0.00 0.00 66 1039.0
20260506041003 16 174 4.8 6.4 0.00 0.00 0.00 66 1010.2
20260506040508 16 106 4.8 4.8 0.00 0.00 0.00 67 1039.0
20260506040502 16 106 4.8 6.4 0.00 0.00 0.00 67 1010.2
20260506040004 16 210 3.2 3.2 0.00 0.00 0.00 66 1039.2
20260506035502 16 182 4.8 6.4 0.00 0.00 0.00 67 1010.4
20260506034957 16 176 3.2 4.8 0.00 0.00 0.00 67 1038.9
20260506034503 16 180 6.4 8.0 0.00 0.00 0.00 66 1010.3
20260506034455 16 180 4.8 8.0 0.00 0.00 0.00 66 1039.1
20260506033952 16 220 4.8 9.7 0.00 0.00 0.00 67 1039.1
20260506033503 16 201 3.2 6.4 0.00 0.00 0.00 66 1010.4
20260506033450 16 201 3.2 4.8 0.00 0.00 0.00 66 1039.2
20260506033002 16 191 4.8 6.4 0.00 0.00 0.00 66 1010.4
20260506032946 16 191 3.2 4.8 0.00 0.00 0.00 66 1039.2
20260506032503 16 196 4.8 6.4 0.00 0.00 0.00 66 1010.2
20260506032444 16 47 3.2 3.2 0.00 0.00 0.00 66 1039.0
20260506032003 16 193 3.2 4.8 0.00 0.00 0.00 66 1010.1
20260506031939 16 295 4.8 4.8 0.00 0.00 0.00 66 1038.9
20260506031503 16 178 3.2 4.8 0.00 0.00 0.00 66 1010.2
20260506031437 16 209 1.6 3.2 0.00 0.00 0.00 66 1038.9
20260506031002 16 207 3.2 4.8 0.00 0.00 0.00 66 1010.3
20260506030935 16 183 1.6 3.2 0.00 0.00 0.00 66 1038.9
20260506030432 16 177 1.6 3.2 0.00 0.00 0.00 66 1038.9
20260506030002 16 202 1.6 3.2 0.00 0.00 0.00 65 1010.0
20260506025929 16 213 4.8 4.8 0.00 0.00 0.00 65 1039.1
20260506025502 16 214 6.4 9.7 0.00 0.00 0.00 65 1010.3
20260506025426 16 220 4.8 4.8 0.00 0.00 0.00 66 1038.9
20260506025003 16 194 3.2 4.8 0.00 0.00 0.00 66 1010.1
20260506024923 16 251 3.2 3.2 0.00 0.00 0.00 66 1038.9
20260506024503 16 172 4.8 6.4 0.00 0.00 0.00 65 1009.9
20260506024420 16 198 0.0 1.6 0.00 0.00 0.00 65 1039.0
20260506024003 16 202 4.8 6.4 0.00 0.00 0.00 65 1010.0
20260506023915 16 147 1.6 3.2 0.00 0.00 0.00 65 1039.1
20260506023502 16 149 3.2 6.4 0.00 0.00 0.00 65 1010.0
20260506023412 16 40 1.6 3.2 0.00 0.00 0.00 65 1038.9
20260506023003 16 183 4.8 6.4 0.00 0.00 0.00 65 1010.1
20260506022909 16 187 3.2 4.8 0.00 0.00 0.00 65 1038.9
20260506022407 16 99 1.6 1.6 0.00 0.00 0.00 64 1038.7
20260506022002 16 199 4.8 6.4 0.00 0.00 0.00 64 1010.1
20260506021905 16 206 3.2 4.8 0.00 0.00 0.00 64 1038.9
20260506021503 17 196 8.0 11.3 0.00 0.00 0.00 63 1010.2
20260506021402 17 200 3.2 4.8 0.00 0.00 0.00 63 1038.9
20260506021004 17 176 4.8 8.0 0.00 0.00 0.00 63 1010.2
20260506020858 17 143 4.8 4.8 0.00 0.00 0.00 63 1039.1
20260506020503 17 182 6.4 8.0 0.00 0.00 0.00 62 1010.3
20260506020356 17 231 3.2 3.2 0.00 0.00 0.00 63 1038.8
20260506015853 17 287 6.4 9.7 0.00 0.00 0.00 62 1038.9
20260506015502 17 83 1.6 3.2 0.00 0.00 0.00 63 1009.9
20260506015351 17 238 3.2 3.2 0.00 0.00 0.00 62 1038.9
20260506015003 17 54 3.2 6.4 0.00 0.00 0.00 62 1009.9
20260506014848 17 69 1.6 3.2 0.00 0.00 0.00 62 1039.0
20260506014502 17 177 4.8 6.4 0.00 0.00 0.00 62 1010.1
20260506014344 17 185 3.2 4.8 0.00 0.00 0.00 62 1038.9
20260506014002 17 186 4.8 8.0 0.00 0.00 0.00 62 1009.8
20260506013841 17 179 4.8 4.8 0.00 0.00 0.00 62 1038.4
20260506013503 17 152 3.2 4.8 0.00 0.00 0.00 62 1009.8
20260506013339 17 193 3.2 3.2 0.00 0.00 0.00 62 1038.4
20260506013003 17 178 3.2 4.8 0.00 0.00 0.00 62 1009.5
20260506012835 17 181 1.6 3.2 0.00 0.00 0.00 62 1038.4
20260506012502 17 144 4.8 6.4 0.00 0.00 0.00 62 1009.5
20260506012332 17 166 0.0 1.6 0.00 0.00 0.00 62 1038.4
20260506012003 17 188 4.8 6.4 0.00 0.00 0.00 61 1009.3
20260506011829 17 122 3.2 4.8 0.00 0.00 0.00 61 1038.1
20260506011502 17 183 4.8 6.4 0.00 0.00 0.00 61 1009.4
20260506011325 17 110 3.2 8.0 0.00 0.00 0.00 61 1038.2
20260506011003 17 209 4.8 6.4 0.00 0.00 0.00 61 1009.4
20260506010823 18 160 0.0 1.6 0.00 0.00 0.00 61 1038.2
20260506010502 18 206 0.0 0.0 0.00 0.00 0.00 61 1009.5
20260506010321 18 203 4.8 4.8 0.00 0.00 0.00 60 1038.1
20260506010003 18 95 6.4 9.7 0.00 0.00 0.00 60 1009.4
20260506005818 18 173 3.2 3.2 0.00 0.00 0.00 61 1038.2
20260506005502 18 184 1.6 3.2 0.00 0.00 0.00 60 1009.5
20260506005315 18 186 4.8 8.0 0.00 0.00 0.00 60 1038.0
20260506005003 18 212 4.8 6.4 0.00 0.00 0.00 60 1009.5
20260506004810 18 180 4.8 8.0 0.00 0.00 0.00 60 1038.0
20260506004503 18 140 1.6 4.8 0.00 0.00 0.00 59 1009.3
20260506004308 18 146 1.6 3.2 0.00 0.00 0.00 59 1038.2
20260506004002 18 219 6.4 8.0 0.00 0.00 0.00 59 1009.7
20260506003804 18 179 4.8 4.8 0.00 0.00 0.00 58 1038.1
20260506003502 18 176 4.8 6.4 0.00 0.00 0.00 58 1009.5
20260506003301 18 60 4.8 8.0 0.00 0.00 0.00 58 1038.2
20260506003004 18 210 4.8 6.4 0.00 0.00 0.00 58 1009.4
20260506002757 18 201 4.8 4.8 0.00 0.00 0.00 58 1038.1
20260506002502 18 224 4.8 6.4 0.00 0.00 0.00 57 1009.3
20260506002253 18 176 3.2 4.8 0.00 0.00 0.00 57 1038.3
20260506002003 19 184 3.2 8.0 0.00 0.00 0.00 57 1009.3
20260506001749 19 200 4.8 4.8 0.00 0.00 0.00 56 1037.9
20260506001502 19 174 3.2 3.2 0.00 0.00 0.00 56 1009.2
20260506001247 19 164 4.8 4.8 0.00 0.00 0.00 56 1037.9
20260506001002 19 197 1.6 3.2 0.00 0.00 0.00 56 1009.0